[[{"header":{"parameterUnit":"m.s-1","parameterCategory":1,"la1":30.2991,"la2":30.254,"lo1":-89.0895,"lo2":-89.0444,"dy":0.0017,"dx":0.0017,"nx":28,"ny":28,"refTime":"2025-11-17T09:00:00:Z","depth":0,"parameterNumber":2,"parameterNumberName":"U-component_of_WINDS"},"data":[0,0,0,0,0,0,0,0,0,0,0,0,0,0,0,0,0,0,0,0,0,0,0,0,0,0,0,0,0,0,0,0,0,0,0,0,0,0,0,0,0,0,0,0,0,0,0,0,0,0,0,0,0,0,0,0,0,0,0.6456,0.6456,0,0.6476,0.6476,0.6476,0.6489,0.6489,0.649,0.649,0.6511,0.6512,0.6512,0,0,0,0,0,0,0,0,0,0,0,0,0,0.643,0.6431,0.6456,0.6456,0.6456,0.6476,0.6476,0.6476,0.6489,0.649,0.649,0.649,0.6511,0.6512,0.6512,0,0,0,0,0,0,0,0,0,0,0,0,0,0.6445,0.6431,0.6456,0.6465,0.6466,0.6476,0.6476,0.6476,0.6489,0.649,0.649,0.649,0.6511,0.6512,0.6512,0.6515,0,0,0.6515,0.6515,0,0,0,0,0,0,0,0,0.6444,0.6446,0.6464,0.6465,0.6466,0.648,0.6475,0.6489,0.6489,0.6481,0.649,0.649,0.6501,0.6502,0.6506,0.6516,0.6516,0.6515,0.6515,0.6515,0.6516,0,0,0,0,0,0,0,0.6443,0.6445,0.6464,0.6464,0.6465,0.6469,0.6471,0.6478,0.649,0.6481,0.6482,0.6485,0.6502,0.6505,0.6507,0.6517,0.6515,0.6515,0.6516,0.6516,0.653,0.653,0,0,0,0,0,0,0.6441,0.6444,0.6463,0.6464,0.6455,0.6469,0.6472,0.6475,0.649,0.6492,0.6484,0.6485,0.6504,0.6506,0.6507,0.6511,0.6515,0.6516,0.6517,0.653,0.653,0.653,0,0,0,0,0,0,0.644,0.6442,0.6462,0.6455,0.6457,0.647,0.6474,0.6476,0.648,0.6492,0.6494,0.6486,0.6504,0.6506,0.6513,0.6512,0.6516,0.6517,0.653,0.653,0.653,0.6519,0,0,0,0,0,0,0.6439,0.6442,0.6442,0.6455,0.6458,0.6467,0.6474,0.6476,0.6481,0.6482,0.6494,0.6496,0.6504,0.6512,0.6514,0.6513,0.6518,0.6531,0.653,0.653,0.6519,0.6518,0.6518,0,0,0,0,0,0.6438,0.6438,0.6442,0.6444,0.6459,0.6467,0.6469,0.6478,0.6481,0.6481,0.649,0.6496,0.6512,0.6512,0.6514,0.6514,0.6531,0.653,0.653,0.652,0.6519,0.6518,0,0,0,0,0,0,0.6426,0.644,0.6444,0.6448,0.6456,0.6469,0.647,0.6476,0.6483,0.6484,0.6495,0.6498,0.6504,0.651,0.651,0.6518,0.6522,0.6522,0.6513,0.6512,0.6512,0.651,0.6518,0,0,0,0,0,0.6423,0.6428,0.6441,0.6443,0.6447,0.6458,0.6462,0.6468,0.6477,0.648,0.6489,0.6497,0.6505,0.6509,0.6516,0.6521,0.6524,0.6522,0.6521,0.652,0.652,0.6524,0.6523,0.653,0.653,0.653,0,0,0.6418,0.6427,0.6429,0.6441,0.6448,0.6453,0.646,0.6466,0.647,0.6481,0.6488,0.6494,0.6505,0.651,0.6513,0.6516,0.652,0.652,0.6519,0.652,0.6524,0.6523,0.6523,0.653,0.653,0.653,0,0,0.6412,0.6419,0.6422,0.6429,0.6439,0.6447,0.6448,0.646,0.6464,0.6471,0.648,0.6486,0.6498,0.6505,0.651,0.6508,0.6514,0.651,0.6506,0.6509,0.6508,0.6508,0.6508,0.6507,0.651,0.651,0.651,0,0.6405,0.6413,0.6423,0.6428,0.6433,0.6443,0.6447,0.6453,0.6465,0.6469,0.6472,0.6487,0.6495,0.6503,0.6502,0.6506,0.6508,0.6509,0.6508,0.6507,0.6507,0.6507,0.6507,0.651,0.651,0.651,0.651,0,0.6404,0.6409,0.6411,0.6422,0.6427,0.6432,0.6443,0.6447,0.6453,0.6461,0.6468,0.6478,0.6488,0.6491,0.6497,0.65,0.6501,0.6505,0.651,0.6506,0.6506,0.6506,0.6509,0.6509,0.6509,0.651,0,0,0.6389,0.6407,0.6407,0.6413,0.6425,0.643,0.6436,0.6445,0.6449,0.6457,0.6462,0.6473,0.6477,0.6483,0.6491,0.6494,0.6492,0.6498,0.6499,0.6497,0.6497,0.6493,0.6493,0.6497,0.6497,0.6497,0.6496,0,0.6385,0.6394,0.6403,0.641,0.6415,0.6426,0.6431,0.6439,0.6447,0.6454,0.6462,0.6469,0.6475,0.6479,0.6482,0.6491,0.6492,0.6492,0.6502,0.6502,0.6498,0.6493,0.6488,0.6487,0.6496,0.6496,0.6496,0,0.638,0.6388,0.6395,0.6408,0.6411,0.6415,0.6425,0.6431,0.6441,0.6447,0.6454,0.6462,0.6469,0.6473,0.6483,0.6483,0.6488,0.6493,0.6493,0.6494,0.6498,0.6493,0.6487,0.6486,0.6496,0.6496,0.6496,0,0.6369,0.6382,0.6387,0.6392,0.6407,0.641,0.6417,0.6427,0.6433,0.6442,0.6446,0.6456,0.6461,0.6469,0.648,0.6482,0.6489,0.6494,0.6494,0.6494,0.6494,0.6494,0.6488,0.6498,0.6498,0.6498,0.6498,0,0.6363,0.6366,0.6382,0.6386,0.6391,0.6402,0.6407,0.6415,0.6425,0.643,0.6441,0.6446,0.646,0.6467,0.6476,0.6484,0.6486,0.6491,0.6493,0.649,0.6489,0.6493,0.6493,0.6498,0.6498,0.6498,0.6498,0,0.635,0.6361,0.6368,0.6382,0.6386,0.6389,0.6402,0.6406,0.6415,0.6422,0.6425,0.6438,0.6448,0.6459,0.6472,0.6478,0.6485,0.6488,0.6481,0.6482,0.6482,0.6482,0.6478,0.6478,0.6488,0.6488,0.6487,0,0.6345,0.6348,0.6363,0.6368,0.6374,0.6381,0.6387,0.6399,0.6405,0.6418,0.6421,0.6431,0.644,0.6454,0.6466,0.6476,0.648,0.6478,0.6481,0.6478,0.648,0.6479,0.648,0.6477,0.6477,0.6476,0.6476,0,0.6335,0.6341,0.6348,0.6358,0.6365,0.6373,0.6382,0.6385,0.64,0.6406,0.6415,0.6422,0.6436,0.6446,0.6458,0.6466,0.6474,0.6475,0.6476,0.6472,0.6468,0.647,0.6478,0.6475,0.6475,0.6475,0.6475,0.6475,0.6326,0.6329,0.6341,0.6349,0.6358,0.6366,0.6371,0.6381,0.6389,0.64,0.6408,0.6417,0.6429,0.6446,0.6454,0.6462,0.6465,0.6466,0.6466,0.6466,0.6465,0.6467,0.6465,0.6465,0.6465,0.6465,0.6465,0,0.6316,0.6324,0.6332,0.6345,0.6352,0.6359,0.6369,0.6375,0.6383,0.6393,0.6402,0.6414,0.6424,0.6437,0.6448,0.6452,0.6456,0.6455,0.6455,0.6456,0.6462,0.646,0.6452,0.6452,0.6452,0.6452,0.6452,0.6452,0.6312,0.6318,0.6326,0.6337,0.6345,0.6354,0.636,0.6368,0.6377,0.6389,0.6398,0.6406,0.6418,0.6431,0.6441,0.6445,0.6448,0.6446,0.6451,0.6455,0.6456,0.6457,0.6456,0.6447,0.6447,0.6445,0.6445,0.6445]},{"header":{"parameterUnit":"m.s-1","parameterCategory":1,"la1":30.2991,"la2":30.254,"lo1":-89.0895,"lo2":-89.0444,"dy":0.0017,"dx":0.0017,"nx":28,"ny":28,"refTime":"2025-11-17T09:00:00:Z","depth":0,"parameterNumber":3,"parameterNumberName":"V-component_of_WINDS"},"data":[0,0,0,0,0,0,0,0,0,0,0,0,0,0,0,0,0,0,0,0,0,0,0,0,0,0,0,0,0,0,0,0,0,0,0,0,0,0,0,0,0,0,0,0,0,0,0,0,0,0,0,0,0,0,0,0,0,0,0.5815,0.5816,0,0.5877,0.5878,0.5879,0.5916,0.5916,0.5916,0.5916,0.5984,0.5985,0.5987,0,0,0,0,0,0,0,0,0,0,0,0,0,0.5734,0.5736,0.5815,0.5816,0.5817,0.5877,0.5878,0.5879,0.5916,0.5916,0.5916,0.5916,0.5983,0.5985,0.5987,0,0,0,0,0,0,0,0,0,0,0,0,0,0.578,0.5736,0.5815,0.5842,0.5845,0.5877,0.5878,0.5879,0.5916,0.5916,0.5916,0.5916,0.5982,0.5985,0.5987,0.5998,0,0,0.5995,0.5996,0,0,0,0,0,0,0,0,0.5778,0.5783,0.5838,0.5841,0.5844,0.5889,0.5874,0.5919,0.5916,0.5889,0.5916,0.5916,0.5952,0.5957,0.5968,0.6001,0.6004,0.5995,0.5997,0.5998,0.5998,0,0,0,0,0,0,0,0.5774,0.5781,0.584,0.5838,0.5842,0.5853,0.586,0.5883,0.5919,0.5891,0.5894,0.5901,0.5954,0.5966,0.597,0.6005,0.5995,0.5997,0.5999,0.6,0.6052,0.6052,0,0,0,0,0,0,0.5766,0.5778,0.5838,0.5842,0.5811,0.5854,0.5862,0.5874,0.5918,0.5925,0.5901,0.5902,0.5962,0.5967,0.5973,0.5989,0.5998,0.6,0.6001,0.6052,0.6052,0.6052,0,0,0,0,0,0,0.5764,0.5771,0.5835,0.5811,0.582,0.5856,0.5869,0.5875,0.5887,0.5925,0.5932,0.5906,0.5962,0.5969,0.5991,0.5992,0.6001,0.6003,0.6052,0.6052,0.6052,0.6021,0,0,0,0,0,0,0.5762,0.577,0.5773,0.581,0.5821,0.5851,0.5869,0.5876,0.5891,0.5894,0.5932,0.5939,0.5963,0.5988,0.5994,0.5996,0.6005,0.6052,0.6052,0.6052,0.6022,0.602,0.6018,0,0,0,0,0,0.5759,0.5763,0.5773,0.578,0.5825,0.5851,0.5857,0.5884,0.5891,0.5895,0.592,0.5937,0.5991,0.599,0.5997,0.5999,0.6052,0.6052,0.6052,0.6023,0.602,0.6018,0,0,0,0,0,0,0.5726,0.5768,0.578,0.5796,0.5819,0.5857,0.5863,0.588,0.5903,0.5905,0.5938,0.5946,0.5966,0.5985,0.5983,0.6013,0.6024,0.6025,0.6,0.5997,0.5995,0.599,0.6007,0,0,0,0,0,0.572,0.5736,0.5773,0.5783,0.5794,0.5827,0.5839,0.5857,0.5884,0.5895,0.5921,0.5948,0.5971,0.5985,0.6008,0.6026,0.6036,0.6031,0.6029,0.6027,0.6028,0.6041,0.604,0.6051,0.6051,0.6051,0,0,0.5709,0.5734,0.5742,0.5777,0.5798,0.5816,0.5835,0.5853,0.5867,0.5898,0.592,0.5941,0.5973,0.5993,0.6003,0.601,0.6027,0.6027,0.6025,0.6027,0.604,0.6039,0.6038,0.6051,0.6051,0.6051,0,0,0.5697,0.5717,0.5729,0.5749,0.578,0.5801,0.5804,0.584,0.5854,0.5877,0.5901,0.592,0.5958,0.5981,0.5997,0.5996,0.6014,0.6003,0.5992,0.6004,0.6003,0.6002,0.6003,0.6003,0.6004,0.6004,0.6003,0,0.568,0.5706,0.5733,0.5749,0.5765,0.5793,0.5806,0.5825,0.5862,0.5873,0.588,0.593,0.5953,0.598,0.598,0.5992,0.5998,0.5999,0.6001,0.6,0.6,0.6002,0.6002,0.6002,0.6002,0.6002,0.6002,0,0.5684,0.5702,0.5708,0.5742,0.5758,0.5773,0.5804,0.5818,0.5835,0.5857,0.5881,0.5911,0.5941,0.5949,0.5966,0.5979,0.5982,0.5994,0.6005,0.5997,0.5999,0.6,0.6,0.6,0.6001,0.6001,0,0,0.5653,0.5702,0.5704,0.572,0.5757,0.5772,0.579,0.5818,0.583,0.5855,0.5872,0.5905,0.5916,0.5935,0.5956,0.5966,0.5965,0.5977,0.5979,0.5975,0.5983,0.5974,0.5974,0.5978,0.5978,0.5978,0.5981,0,0.5647,0.5677,0.5703,0.5725,0.5743,0.5771,0.5786,0.5811,0.5832,0.5853,0.5877,0.59,0.5913,0.5925,0.5936,0.5963,0.5968,0.5963,0.5995,0.5996,0.5986,0.5975,0.5965,0.5966,0.5982,0.5982,0.5982,0,0.5645,0.5668,0.5691,0.5727,0.5736,0.5749,0.5778,0.5796,0.5827,0.5842,0.5863,0.5884,0.5906,0.5916,0.5947,0.5944,0.5959,0.5974,0.5975,0.5979,0.5988,0.598,0.5967,0.5967,0.5983,0.5983,0.5983,0,0.5621,0.5658,0.5677,0.5691,0.5733,0.5742,0.576,0.579,0.5807,0.5833,0.5844,0.5873,0.5889,0.5912,0.5942,0.5946,0.5971,0.5983,0.5986,0.5985,0.599,0.5989,0.598,0.5999,0.5999,0.5999,0.5999,0,0.5613,0.5626,0.5667,0.5679,0.5696,0.5726,0.5742,0.5763,0.579,0.5808,0.5835,0.5851,0.5889,0.5911,0.5935,0.5959,0.5966,0.598,0.5986,0.5978,0.5976,0.5988,0.5989,0.5999,0.5999,0.5999,0.5999,0,0.5589,0.5617,0.564,0.5678,0.5688,0.5699,0.5732,0.5746,0.5769,0.5792,0.5799,0.5836,0.5863,0.5895,0.5933,0.5949,0.5972,0.5981,0.5961,0.5965,0.5966,0.5966,0.5965,0.5967,0.5983,0.5983,0.5983,0,0.5582,0.5593,0.5632,0.5646,0.5663,0.5684,0.57,0.5731,0.5748,0.5784,0.5794,0.5823,0.5848,0.5891,0.5923,0.5953,0.5963,0.5961,0.5968,0.5959,0.5964,0.5963,0.5965,0.5959,0.5958,0.5958,0.5958,0,0.5568,0.5581,0.5603,0.563,0.5648,0.5672,0.5696,0.5706,0.5743,0.576,0.5788,0.5807,0.5846,0.5875,0.591,0.5931,0.5951,0.5955,0.5958,0.595,0.5938,0.5945,0.5956,0.5955,0.5956,0.5956,0.5956,0.5956,0.5553,0.5564,0.5594,0.5618,0.5639,0.5662,0.5677,0.5702,0.5725,0.5757,0.5775,0.5803,0.5836,0.5883,0.5904,0.5928,0.5935,0.5938,0.5939,0.594,0.5938,0.5934,0.5934,0.5935,0.5935,0.5935,0.5935,0,0.5541,0.5561,0.5583,0.5615,0.5635,0.5651,0.5679,0.5695,0.5718,0.5746,0.577,0.5803,0.5832,0.5866,0.5898,0.5911,0.5921,0.5918,0.5918,0.5923,0.5929,0.5924,0.5909,0.5909,0.5909,0.5909,0.5909,0.5909,0.5536,0.5557,0.5574,0.5606,0.5627,0.5653,0.5668,0.569,0.5713,0.5747,0.5771,0.5793,0.5824,0.5858,0.5887,0.5896,0.5907,0.5902,0.5914,0.592,0.5922,0.5924,0.592,0.5904,0.5904,0.5906,0.5906,0.5906]}]]